Location: Sungai Bunut
(2.6333°N, 113.7333°E)
Time: 18:41:29
(UTC+00:00)

Cosmos 1833 - Pass Details

Date: 16 October 2021
Orbit: 833 x 866 km, 70.9° (Epoch: 08 December)

Event Time Altitude Azimuth Distance (km) Brightness Sun altitude
Rises 21:09:29 0° 194° (SSW) 3,429 7.3 -15.5°
Reaches altitude 10° 21:11:57 10° 193° (SSW) 2,487 6.6 -14.9°
Maximum altitude 21:17:41 83° 105° (ESE) 860 4.3 -13.5°
Drops below altitude 10° 21:23:20 10° 18° (NNE) 2,457 6.7 -12.1°
Sets 21:25:45 0° 17° (NNE) 3,385 7.4 -11.5°
